| time (UTC) | temp F | wind direction | speed knots | gust knots | rain 1hr in | rain 24hr in | rain mn in | humidity % | barometer mb |
| 20260503203034 | 85 | 88 | 5.2 | 11.3 | 0.00 | 0.00 | 0.00 | 31 | 1013.2 |
| 20260503201535 | 84 | 72 | 4.3 | 10.4 | 0.00 | 0.00 | 0.00 | 31 | 1013.3 |
| 20260503200038 | 84 | 72 | 3.5 | 11.3 | 0.00 | 0.00 | 0.00 | 32 | 1013.5 |
| 20260503194535 | 82 | 43 | 2.6 | 11.3 | 0.00 | 0.00 | 0.00 | 36 | 1013.7 |
| 20260503193036 | 81 | 314 | 2.6 | 7.0 | 0.00 | 0.00 | 0.00 | 39 | 1013.9 |
| 20260503190031 | 77 | 326 | 2.6 | 7.0 | 0.00 | 0.00 | 0.00 | 43 | 1014.3 |
| 20260503183150 | 75 | 346 | 1.7 | 4.3 | 0.00 | 0.00 | 0.00 | 46 | 1014.7 |
| 20260503181534 | 74 | 339 | 1.7 | 4.3 | 0.00 | 0.00 | 0.00 | 49 | 1014.9 |
| 20260503180031 | 72 | 9 | 0.9 | 4.3 | 0.00 | 0.00 | 0.00 | 50 | 1015.0 |
| 20260503174536 | 71 | 39 | 0.9 | 3.5 | 0.00 | 0.00 | 0.00 | 51 | 1015.2 |
| 20260503173036 | 71 | 10 | 0.9 | 2.6 | 0.00 | 0.00 | 0.00 | 55 | 1015.4 |
| 20260503171533 | 70 | 58 | 0.9 | 3.5 | 0.00 | 0.00 | 0.00 | 58 | 1015.4 |
| 20260503140109 | 50 | 168 | 0.9 | 3.5 | 0.00 | 0.00 | 0.00 | 90 | 1016.0 |
| 20260503081608 | 55 | 215 | 1.7 | 3.5 | 0.00 | 0.00 | 0.00 | 87 | 1015.3 |
| 20260503071532 | 56 | 201 | 0.9 | 1.7 | 0.00 | 0.00 | 0.00 | 88 | 1015.3 |
| 20260503054538 | 60 | 219 | 0.0 | 1.7 | 0.00 | 0.00 | 0.00 | 80 | 1015.1 |
| 20260503050030 | 61 | 204 | 0.0 | 1.7 | 0.00 | 0.00 | 0.00 | 77 | 1015.0 |
| 20260503044608 | 62 | 73 | 0.9 | 3.5 | 0.00 | 0.00 | 0.00 | 74 | 1015.0 |
| 20260503041535 | 64 | 356 | 1.7 | 3.5 | 0.00 | 0.00 | 0.00 | 72 | 1014.6 |
| 20260503040148 | 63 | 318 | 0.0 | 2.6 | 0.00 | 0.00 | 0.00 | 73 | 1014.4 |
| 20260503031535 | 67 | 360 | 0.0 | 2.6 | 0.00 | 0.00 | 0.00 | 65 | 1013.2 |
| 20260503030037 | 68 | 360 | 0.9 | 3.5 | 0.00 | 0.00 | 0.00 | 63 | 1013.0 |
| 20260503024535 | 69 | 34 | 0.9 | 2.6 | 0.00 | 0.00 | 0.00 | 62 | 1012.9 |
| 20260503023036 | 69 | 45 | 0.0 | 2.6 | 0.00 | 0.00 | 0.00 | 61 | 1012.8 |
| 20260503021534 | 70 | 34 | 0.9 | 2.6 | 0.00 | 0.00 | 0.00 | 59 | 1012.7 |
| 20260503020037 | 72 | 360 | 0.9 | 3.5 | 0.00 | 0.00 | 0.00 | 59 | 1012.6 |
| 20260503014534 | 72 | 360 | 0.0 | 1.7 | 0.00 | 0.00 | 0.00 | 58 | 1012.5 |
| 20260503013036 | 73 | 360 | 0.9 | 2.6 | 0.00 | 0.00 | 0.00 | 55 | 1012.6 |
| 20260503011534 | 73 | 360 | 1.7 | 3.5 | 0.00 | 0.00 | 0.00 | 54 | 1012.6 |
| 20260503004535 | 76 | 360 | 0.9 | 2.6 | 0.00 | 0.00 | 0.00 | 50 | 1012.6 |
| 20260502234537 | 78 | 18 | 1.7 | 3.5 | 0.00 | 0.00 | 0.00 | 50 | 1012.9 |
| 20260502233037 | 78 | 27 | 1.7 | 3.5 | 0.00 | 0.00 | 0.00 | 48 | 1013.0 |
| 20260502231536 | 77 | 1 | 1.7 | 5.2 | 0.00 | 0.00 | 0.00 | 49 | 1013.2 |
| 20260502230041 | 77 | 8 | 1.7 | 3.5 | 0.00 | 0.00 | 0.00 | 49 | 1013.4 |
| 20260502223036 | 76 | 17 | 2.6 | 6.1 | 0.00 | 0.00 | 0.00 | 54 | 1013.9 |
| 20260502221619 | 76 | 29 | 2.6 | 6.1 | 0.00 | 0.00 | 0.00 | 54 | 1014.1 |
| 20260502221609 | 76 | 30 | 1.7 | 5.2 | 0.00 | 0.00 | 0.00 | 53 | 1014.4 |
| 20260502214536 | 76 | 302 | 0.9 | 4.3 | 0.00 | 0.00 | 0.00 | 53 | 1014.5 |
| 20260502213035 | 73 | 311 | 0.9 | 4.3 | 0.00 | 0.00 | 0.00 | 57 | 1014.7 |
| 20260502211535 | 71 | 13 | 0.9 | 4.3 | 0.00 | 0.00 | 0.00 | 59 | 1015.0 |
| 20260502204535 | 71 | 48 | 1.7 | 4.3 | 0.00 | 0.00 | 0.00 | 60 | 1015.3 |